Weather History for Cut Bank, MT

Change the Weather History Date:

Wednesday, February 26, 2014

  Actual Average Record
Temperature  
Mean Temperature 14 °F 26 °F  
Max Temperature 38 °F 37 °F 66 °F (1992)
Min Temperature -11 °F 15 °F -30 °F (1904)
Degree Days  
Heating Degree Days 51 39  
Month to date heating degree days 1384 1065  
Since 1 July heating degree days 6092 5983  
Cooling Degree Days 0 0  
Month to date cooling degree days 0 0  
Year to date cooling degree days 0 0  
Moisture  
Dew Point 5 °F    
Average Humidity 62    
Maximum Humidity 80    
Minimum Humidity 43    
Precipitation  
Precipitation 0.00 in 0.01 in 0.32 in (1958)
Month to date precipitation 0.15 0.19  
Year to date precipitation 0.97 0.39  
Snow  
Snow 0.00 in - - ()
Snow Depth 5.00 in    
Sea Level Pressure  
Sea Level Pressure 30.14 in    
Wind  
Wind Speed 6 mph (West)    
Max Wind Speed 15 mph    
Max Gust Speed 19 mph    
Visibility 10 miles    
Events      
T = Trace of Precipitation, MM = Missing Value Source: NWS Daily Summary

Daily Weather History Graph

Daily Weather History Graph

Search for Another Location

Airport:

Trip Planner

Search our weather history database for the weather conditions in past years. The results will help you decide how hot, cold, wet, or windy it might be!

Date:

Astronomy

Feb. 26, 2014 Rise Set
Actual Time 7:16 AM MST 6:08 PM MST
Civil Twilight 6:45 AM MST 6:40 PM MST
Nautical Twilight 6:08 AM MST 7:16 PM MST
Astronomical Twilight 5:32 AM MST 7:53 PM MST
Moon 5:16 AM MST (2/26) 3:18 PM MST (2/26)
Length of Visible Light 11h 55m
Length of Day
10h 51m
Waning Crescent, 9% of the Moon is Illuminated
Feb 26
Waning Crescent
Mar 1
New
Mar 8
First Quarter
Mar 16
Full
Mar 23
Last Quarter

Hourly Weather History & Observations

Time (MST) Temp. Windchill Dew Point Humidity Pressure Visibility Wind Dir Wind Speed Gust Speed Precip Events Conditions
12:56 AM 1.0 °F -12.9 °F -8.0 °F 66% 30.33 in 10.0 mi West 8.1 mph - N/A   Clear
1:56 AM 3.9 °F -10.4 °F -5.1 °F 66% 30.30 in 10.0 mi West 9.2 mph - N/A   Clear
2:56 AM -7.1 °F -19.9 °F -14.1 °F 72% 30.32 in 10.0 mi NW 5.8 mph - N/A   Clear
3:56 AM 9.0 °F -7.3 °F -2.9 °F 59% 30.27 in 10.0 mi West 13.8 mph - N/A   Clear
4:56 AM 14.0 °F -0.2 °F -2.0 °F 49% 30.25 in 10.0 mi West 12.7 mph - N/A   Clear
5:56 AM 12.9 °F -0.2 °F -0.9 °F 54% 30.26 in 10.0 mi WNW 10.4 mph - N/A   Clear
6:56 AM 10.9 °F -3.4 °F -0.9 °F 59% 30.26 in 10.0 mi West 11.5 mph - N/A   Clear
7:56 AM 12.0 °F -2.0 °F -0.9 °F 56% 30.27 in 10.0 mi West 11.5 mph - N/A   Clear
8:56 AM 16.0 °F 8.8 °F -0.0 °F 49% 30.27 in 10.0 mi NNW 4.6 mph - N/A   Clear
9:56 AM 21.0 °F - 3.9 °F 48% 30.25 in 10.0 mi Calm Calm - N/A   Clear
10:56 AM 24.1 °F 18.2 °F 9.0 °F 53% 30.22 in 10.0 mi West 4.6 mph - N/A   Clear
11:56 AM 27.0 °F - 12.0 °F 53% 30.22 in 10.0 mi Calm Calm - N/A   Clear
12:56 PM 30.0 °F - 15.1 °F 54% 30.15 in 10.0 mi Calm Calm - N/A   Clear
1:56 PM 35.1 °F 31.0 °F 16.0 °F 46% 30.09 in 10.0 mi West 4.6 mph - N/A   Clear
2:56 PM 34.0 °F - 17.1 °F 50% 30.09 in 10.0 mi Calm Calm - N/A   Clear
3:56 PM 36.0 °F 33.3 °F 16.0 °F 44% 30.03 in 10.0 mi East 3.5 mph - N/A   Clear
4:56 PM 34.0 °F - 14.0 °F 44% 30.00 in 10.0 mi Calm Calm - N/A   Unknown
5:56 PM 27.0 °F 21.6 °F 16.0 °F 63% 30.00 in 10.0 mi South 4.6 mph - N/A   Clear
6:56 PM 25.0 °F 19.3 °F 14.0 °F 63% 30.00 in 10.0 mi SSE 4.6 mph - N/A   Clear
7:56 PM 21.0 °F 14.6 °F 12.9 °F 71% 29.98 in 10.0 mi ESE 4.6 mph - N/A   Clear
8:56 PM 19.0 °F 13.9 °F 10.9 °F 71% 29.96 in 10.0 mi East 3.5 mph - N/A   Clear
9:56 PM 8.1 °F -2.0 °F 3.9 °F 83% 29.97 in 10.0 mi North 5.8 mph - N/A   Clear
10:56 PM 6.1 °F -5.6 °F 1.9 °F 83% 29.95 in 10.0 mi North 6.9 mph - N/A   Clear
11:56 PM 8.1 °F -5.3 °F 3.9 °F 83% 29.93 in 10.0 mi WNW 9.2 mph - N/A   Clear